Hourly Weather Bolshoe Afanasovo

Today, 20 June, Sunday

Time Temperature Precipitation Wind Pressure Humidity
00:00 +19°C° 0 mm 5 mps 756 mmHg 87%
01:00 +19°C° 0 mm 4 mps 756 mmHg 89%
02:00 +18°C° 0 mm 4 mps 756 mmHg 90%
03:00 +18°C° 0 mm 3 mps 756 mmHg 92%
04:00 +19°C° 0 mm 3 mps 756 mmHg 87%
05:00 +20°C° 0 mm 3 mps 756 mmHg 83%
06:00 +22°C° 0 mm 3 mps 756 mmHg 79%
07:00 +24°C° 0 mm 3 mps 757 mmHg 74%
08:00 +26°C° 0 mm 3 mps 757 mmHg 70%
09:00 +27°C° 0 mm 4 mps 757 mmHg 64%
10:00 +28°C° 0.1 mm 4 mps 757 mmHg 62%
11:00 +28°C° 0.1 mm 4 mps 757 mmHg 60%
12:00 +29°C° 0.1 mm 4 mps 757 mmHg 58%
13:00 +29°C° 0.3 mm 4 mps 757 mmHg 58%
14:00 +29°C° 0.3 mm 4 mps 757 mmHg 58%
15:00 +29°C° 0 mm 4 mps 757 mmHg 58%
16:00 +28°C° 0.1 mm 4 mps 757 mmHg 62%
17:00 +27°C° 0.1 mm 3 mps 757 mmHg 66%
18:00 +26°C° 0.1 mm 2 mps 757 mmHg 70%
19:00 +24°C° 0 mm 2 mps 757 mmHg 69%
20:00 +21°C° 0 mm 2 mps 758 mmHg 69%
21:00 +19°C° 0 mm 2 mps 758 mmHg 68%
22:00 +20°C° 0 mm 1 mps 758 mmHg 67%
23:00 +19°C° 0 mm 1 mps 758 mmHg 66%

Tomorrow, 21 June, Monday

Time Temperature Precipitation Wind Pressure Humidity
00:00 +19°C° 0 mm 1 mps 758 mmHg 65%
01:00 +19°C° 0 mm 1 mps 759 mmHg 65%
02:00 +18°C° 0 mm 1 mps 759 mmHg 65%
03:00 +18°C° 0 mm 1 mps 759 mmHg 65%
04:00 +19°C° 0 mm 1 mps 759 mmHg 66%
05:00 +20°C° 0 mm 1 mps 759 mmHg 67%
06:00 +20°C° 0 mm 2 mps 759 mmHg 67%
07:00 +21°C° 0 mm 2 mps 759 mmHg 67%
08:00 +24°C° 0 mm 3 mps 759 mmHg 66%
09:00 +25°C° 0 mm 3 mps 759 mmHg 66%
10:00 +26°C° 0.3 mm 3 mps 758 mmHg 64%
11:00 +28°C° 0.3 mm 4 mps 758 mmHg 63%
12:00 +29°C° 0.3 mm 4 mps 758 mmHg 62%
13:00 +29°C° 0.1 mm 4 mps 758 mmHg 61%
14:00 +30°C° 0.1 mm 4 mps 758 mmHg 60%
15:00 +30°C° 0.1 mm 4 mps 758 mmHg 59%
16:00 +29°C° 0.3 mm 4 mps 758 mmHg 65%
17:00 +28°C° 0.3 mm 3 mps 757 mmHg 71%
18:00 +27°C° 0.3 mm 3 mps 757 mmHg 77%
19:00 +26°C° 0.1 mm 3 mps 757 mmHg 80%
20:00 +25°C° 0.1 mm 3 mps 757 mmHg 82%
21:00 +22°C° 0.1 mm 3 mps 757 mmHg 85%
22:00 +22°C° 0.2 mm 3 mps 757 mmHg 87%
23:00 +21°C° 0.2 mm 2 mps 757 mmHg 89%

Day after tomorrow, 22 June, Tuesday

Time Temperature Precipitation Wind Pressure Humidity
00:00 +21°C° 0.2 mm 2 mps 757 mmHg 91%
01:00 +21°C° 0 mm 2 mps 757 mmHg 91%
02:00 +20°C° 0 mm 2 mps 758 mmHg 91%
03:00 +21°C° 0 mm 1 mps 758 mmHg 91%
04:00 +21°C° 0 mm 2 mps 758 mmHg 89%
05:00 +24°C° 0 mm 2 mps 758 mmHg 87%
06:00 +25°C° 0 mm 2 mps 758 mmHg 85%
07:00 +26°C° 0 mm 3 mps 758 mmHg 79%
08:00 +28°C° 0 mm 3 mps 758 mmHg 73%
09:00 +29°C° 0 mm 4 mps 758 mmHg 67%
10:00 +30°C° 0.1 mm 4 mps 758 mmHg 63%
11:00 +32°C° 0.1 mm 4 mps 758 mmHg 59%
12:00 +33°C° 0.1 mm 4 mps 758 mmHg 54%
13:00 +33°C° 0 mm 4 mps 758 mmHg 55%
14:00 +33°C° 0 mm 4 mps 758 mmHg 55%
15:00 +33°C° 0 mm 4 mps 757 mmHg 55%
16:00 +32°C° 0 mm 4 mps 757 mmHg 61%
17:00 +30°C° 0 mm 4 mps 757 mmHg 67%
18:00 +28°C° 0 mm 4 mps 757 mmHg 73%
19:00 +27°C° 0 mm 4 mps 757 mmHg 76%
20:00 +26°C° 0 mm 3 mps 757 mmHg 79%
21:00 +25°C° 0 mm 3 mps 757 mmHg 82%
22:00 +24°C° 0 mm 2 mps 757 mmHg 83%
23:00 +24°C° 0 mm 2 mps 757 mmHg 85%

23 June, Wednesday

Time Temperature Precipitation Wind Pressure Humidity
00:00 +23°C° 0 mm 1 mps 757 mmHg 86%
01:00 +23°C° 0 mm 1 mps 757 mmHg 86%
02:00 +22°C° 0 mm 1 mps 757 mmHg 87%
03:00 +22°C° 0 mm 1 mps 757 mmHg 87%
04:00 +23°C° 0 mm 1 mps 757 mmHg 84%
05:00 +24°C° 0 mm 1 mps 757 mmHg 80%
06:00 +25°C° 0 mm 1 mps 758 mmHg 77%
07:00 +27°C° 0 mm 2 mps 758 mmHg 72%
08:00 +28°C° 0 mm 2 mps 758 mmHg 68%
09:00 +29°C° 0 mm 3 mps 758 mmHg 64%
10:00 +30°C° 0 mm 3 mps 757 mmHg 60%
11:00 +31°C° 0 mm 3 mps 757 mmHg 57%
12:00 +33°C° 0 mm 4 mps 757 mmHg 54%
13:00 +33°C° 0 mm 4 mps 757 mmHg 53%
14:00 +33°C° 0 mm 4 mps 757 mmHg 53%
15:00 +33°C° 0 mm 4 mps 757 mmHg 53%
16:00 +32°C° 0 mm 4 mps 757 mmHg 59%
17:00 +31°C° 0 mm 3 mps 757 mmHg 64%
18:00 +30°C° 0 mm 3 mps 757 mmHg 70%
19:00 +28°C° 0.1 mm 2 mps 757 mmHg 74%
20:00 +26°C° 0.1 mm 2 mps 757 mmHg 79%
21:00 +24°C° 0.1 mm 1 mps 757 mmHg 83%
22:00 +23°C° 0.5 mm 2 mps 757 mmHg 86%
23:00 +21°C° 0.5 mm 2 mps 757 mmHg 90%

24 June, Thursday

Time Temperature Precipitation Wind Pressure Humidity
00:00 +20°C° 0.5 mm 2 mps 757 mmHg 93%
01:00 +21°C° 0 mm 1 mps 757 mmHg 92%
02:00 +21°C° 0 mm 1 mps 757 mmHg 91%
03:00 +19°C° 0 mm 0 mps 757 mmHg 91%
04:00 +20°C° 0 mm 0 mps 757 mmHg 88%
05:00 +21°C° 0 mm 0 mps 757 mmHg 85%
06:00 +22°C° 0 mm 0 mps 757 mmHg 83%
07:00 +25°C° 0 mm 1 mps 757 mmHg 78%
08:00 +27°C° 0 mm 1 mps 757 mmHg 73%
09:00 +28°C° 0 mm 1 mps 757 mmHg 68%
10:00 +29°C° 0 mm 1 mps 757 mmHg 64%
11:00 +30°C° 0 mm 2 mps 756 mmHg 61%
12:00 +31°C° 0 mm 2 mps 756 mmHg 58%
13:00 +31°C° 0 mm 2 mps 756 mmHg 56%
14:00 +32°C° 0 mm 2 mps 756 mmHg 55%
15:00 +32°C° 0 mm 2 mps 756 mmHg 53%
16:00 +31°C° 0.1 mm 2 mps 755 mmHg 59%
17:00 +31°C° 0.1 mm 2 mps 755 mmHg 65%
18:00 +30°C° 0.1 mm 2 mps 754 mmHg 70%
19:00 +28°C° 0.4 mm 2 mps 755 mmHg 73%
20:00 +27°C° 0.4 mm 1 mps 755 mmHg 76%
21:00 +25°C° 0.4 mm 1 mps 755 mmHg 79%
22:00 +24°C° 0.1 mm 1 mps 755 mmHg 81%
23:00 +24°C° 0.1 mm 2 mps 754 mmHg 83%

25 June, Friday

Time Temperature Precipitation Wind Pressure Humidity
00:00 +24°C° 0.1 mm 2 mps 754 mmHg 85%
01:00 +23°C° 0 mm 2 mps 754 mmHg 86%
02:00 +23°C° 0 mm 2 mps 754 mmHg 87%
03:00 +21°C° 0 mm 2 mps 754 mmHg 88%
04:00 +23°C° 0 mm 2 mps 754 mmHg 85%
05:00 +24°C° 0 mm 2 mps 754 mmHg 82%
06:00 +26°C° 0 mm 2 mps 754 mmHg 79%
07:00 +27°C° 0 mm 3 mps 754 mmHg 73%
08:00 +29°C° 0 mm 3 mps 753 mmHg 67%
09:00 +30°C° 0 mm 4 mps 753 mmHg 61%
10:00 +32°C° 0 mm 4 mps 753 mmHg 58%
11:00 +33°C° 0 mm 4 mps 753 mmHg 55%
12:00 +34°C° 0 mm 4 mps 753 mmHg 53%
13:00 +34°C° 0 mm 4 mps 753 mmHg 54%
14:00 +34°C° 0 mm 4 mps 752 mmHg 55%
15:00 +34°C° 0 mm 5 mps 752 mmHg 55%
16:00 +32°C° 0.5 mm 5 mps 752 mmHg 64%
17:00 +28°C° 0.5 mm 5 mps 752 mmHg 73%
18:00 +25°C° 0.5 mm 5 mps 752 mmHg 81%
19:00 +23°C° 1 mm 4 mps 752 mmHg 81%
20:00 +24°C° 1 mm 3 mps 752 mmHg 81%
21:00 +23°C° 1 mm 2 mps 752 mmHg 81%
22:00 +21°C° 0.1 mm 2 mps 751 mmHg 83%
23:00 +21°C° 0.1 mm 2 mps 751 mmHg 84%
Show more